Regional Weather Roundup
Issued by NWS

Home | Current Version | Previous Version | Graphics & Text | Print | Product List | Glossary On
Versions: 1 2 3 4 5 6 7 8 9 10 11 12 13 14 15 16 17 18 19 20 21 22 23 24 25 26 27 28 29 30 31 32 33 34 35 36 37 38 39 40 41 42 43 44 45 46 47 48 49 50
802
ASUS44 KMEG 220810
RWRTN
TENNESSEE HOURLY STATE WEATHER ROUNDUP
NATIONAL WEATHER SERVICE MEMPHIS TN
300 AM CDT SUN OCT 22 2017

TNZ002-004-019-021-049-052-054-088>092-220900-
WEST TENNESSEE

CITY           SKY/WX    TMP DP  RH WIND       PRES   REMARKS
MEMPHIS INTL   CLOUDY    73  64  73 S15       30.00F
NWS MEMPHIS      N/A     72 N/A N/A MISG        N/A
JACKSON        CLOUDY    70  63  78 S10G18    30.05F
DYERSBURG        N/A     69  63  81 SE10      30.02F
SOMERVILLE     MOCLDY    70  63  78 SE9G15    30.01F
COVINGTON      CLOUDY    72  63  73 S9        30.01F
UNION CITY     CLOUDY    68  61  77 S13       30.02F
BOLIVAR        MOCLDY    68  63  83 SE8G15    30.04S
HUNTINGDON     PTCLDY    68  61  77 SE9       30.05F
SELMER         PTCLDY    66  61  82 SE10      30.06F
SAVANNAH       CLOUDY    66  61  82 SE7G13    30.08F
$$

TNZ008-025-027-028-033-062-065-066-220900-
NORTH MIDDLE TENNESSEE

CITY           SKY/WX    TMP DP  RH WIND       PRES   REMARKS
NASHVILLE      MOCLDY    63  54  72 SE7       30.15F
PORTLAND       PTCLDY    63  52  67 S9        30.14S
CLARKSVILLE    PTCLDY    61  54  77 SE7       30.10F
SMYRNA         PTCLDY    58  53  84 CALM      30.17S
COOKEVILLE     PTCLDY    61  50  67 S6        30.19S
GALLATIN       PTCLDY    57  52  82 CALM      30.18F
CROSSVILLE     PTCLDY    60  45  57 S7        30.24F
$$

TNZ061-075-076-078-094-096-097-220900-
SOUTH MIDDLE TENNESSEE

CITY           SKY/WX    TMP DP  RH WIND       PRES   REMARKS
FAYETTEVILLE   CLEAR     63  54  72 SE9       30.17S
TULLAHOMA      CLEAR     63  48  59 SE13      30.19F
WINCHESTER     CLEAR     63  52  67 SW8         N/A
COLUMBIA       CLEAR     66  57  72 S6G15     30.11F
SHELBYVILLE    CLEAR     64  52  63 SE7G15    30.16F
$$

TNZ017-018-042-046-047-220900-
NORTHEAST TENNESSEE

CITY           SKY/WX    TMP DP  RH WIND       PRES   REMARKS
TRI CITIES     PTCLDY    47  47 100 CALM      30.29F
ELIZABETHTON   CLEAR     59  48  67 NE6       30.29F
$$

TNZ012-013-036-069-073-074-220900-
CENTRAL EAST TENNESSEE

CITY           SKY/WX    TMP DP  RH WIND       PRES   REMARKS
KNOXVILLE      PTCLDY    51  51 100 CALM      30.24F FOG
DOWNTOWN KNOXV FOG       52  52 100 CALM      30.26S VSB 0
GATLINBURG     CLEAR     46  46 100 CALM      30.26R
MORRISTOWN     CLEAR     54  46  76 CALM      30.26S
JACKSBORO      CLEAR     48  48 100 CALM      30.28F
$$

TNZ083-085-099-220900-
SOUTHEAST TENNESSEE

CITY           SKY/WX    TMP DP  RH WIND       PRES   REMARKS
CHATTANOOGA    PTCLDY    53  50  89 CALM      30.24F
DAYTON         SUNNY     50  50 100 CALM      30.24S
$$

SKY/WX REPORTED AS FAIR MEANS FEW OR NO CLOUDS BELOW
12 THOUSAND FEET.





USA.gov is the U.S. government's official web portal to all federal, state and local government web resources and services.